Date String (YYYY-MM-DD hh:mm:ss) UTC,Instrument flags,Ambient pressure (hPa),Sample flow (lpm),Bypass flow (lpm),Sample temperature (°C),Ambient temperature (°C),ASC tube jacket temperature (°C),LED temperature (°C),Box temperature (°C),Sample RH (%),Span deviation,Mass concentration (μg/m³),Mass concentration (μg/m³),Mass concentration (μg/m³)
DateTimeUTC,F1_M11,P_M11,Q1_M11,Q2_M11,T1_M11,T2_M11,T3_M11,T4_M11,T5_M11,U1_M11,ZSPAN_M11,X2_M11,X0_M11,X1_M11
2023-02-08 05:00:00,,0827.9,4.95,0.00,22.5,21.4,00.0,31.3,24.2,09.2,0000.0,0003.51,0010.90,0002.59
2023-02-08 05:01:00,,0827.8,5.00,0.00,22.5,21.3,00.0,31.3,24.2,09.2,0000.0,0003.45,0011.09,0002.52
2023-02-08 05:02:00,,0827.9,5.01,0.00,22.5,21.2,00.0,31.3,24.2,09.1,0000.0,0003.38,0011.42,0002.45
2023-02-08 05:03:00,,0827.9,4.97,0.00,22.4,21.1,00.0,31.3,24.2,09.1,0000.0,0003.36,0011.62,0002.37
2023-02-08 05:04:00,,0827.9,5.03,0.00,22.4,21.1,00.0,31.3,24.1,09.0,0000.0,0003.28,0011.87,0002.29
2023-02-08 05:05:00,,0827.9,5.00,0.00,22.4,21.0,00.0,31.3,24.1,09.0,0000.0,0003.23,0011.45,0002.24
2023-02-08 05:06:00,,0827.9,4.98,0.00,22.4,21.0,00.0,31.3,24.1,09.0,0000.0,0003.22,0011.43,0002.21
2023-02-08 05:07:00,,0827.9,5.05,0.00,22.4,20.9,00.0,31.3,24.0,09.0,0000.0,0003.24,0010.74,0002.21
2023-02-08 05:08:00,,0827.9,5.00,0.00,22.4,20.8,00.0,31.3,24.0,09.0,0000.0,0003.25,0010.74,0002.21
2023-02-08 05:09:00,,0827.8,5.00,0.00,22.3,20.8,00.0,31.3,24.0,09.0,0000.0,0003.27,0010.84,0002.19
2023-02-08 05:10:00,,0827.8,4.98,0.00,22.3,20.8,00.0,31.3,24.0,08.9,0000.0,0003.27,0011.67,0002.16
2023-02-08 05:11:00,,0827.8,5.02,0.00,22.3,20.8,00.0,31.3,24.0,08.9,0000.0,0003.25,0011.32,0002.14
2023-02-08 05:12:00,,0827.8,5.00,0.00,22.3,20.8,00.0,31.3,23.9,08.9,0000.0,0003.27,0011.01,0002.12
2023-02-08 05:13:00,,0827.7,5.03,0.00,22.3,20.7,00.0,31.2,23.9,08.9,0000.0,0003.27,0010.60,0002.12
2023-02-08 05:14:00,,0827.8,4.96,0.00,22.2,20.7,00.0,31.2,23.9,08.8,0000.0,0003.24,0009.67,0002.11
2023-02-08 05:15:00,,0827.8,5.05,0.00,22.2,20.7,00.0,31.2,23.8,08.8,0000.0,0003.23,0009.11,0002.11
2023-02-08 05:16:00,,0827.7,4.98,0.00,22.3,21.0,00.0,31.2,24.0,08.8,0000.0,0003.24,0009.54,0002.12
2023-02-08 05:17:00,,0827.8,5.02,0.00,22.3,21.9,00.0,31.1,24.2,08.7,0000.0,0003.23,0009.09,0002.12
2023-02-08 05:18:00,,0827.8,4.99,0.00,22.4,22.7,00.0,31.1,24.5,08.7,0000.0,0003.21,0008.90,0002.11
2023-02-08 05:19:00,,0827.8,5.05,0.00,22.5,22.6,00.0,31.2,24.5,08.7,0000.0,0003.21,0008.90,0002.08
2023-02-08 05:20:00,,0827.7,5.02,0.00,22.5,22.2,00.0,31.2,24.4,08.7,0000.0,0003.17,0008.93,0002.06
2023-02-08 05:21:00,,0827.8,4.99,0.00,22.5,21.9,00.0,31.3,24.3,08.7,0000.0,0003.13,0008.38,0002.04
2023-02-08 05:22:00,,0827.7,4.99,0.00,22.5,21.6,00.0,31.3,24.3,08.7,0000.0,0003.06,0007.83,0002.02
2023-02-08 05:23:00,,0827.7,5.10,0.00,22.5,21.4,00.0,31.3,24.2,08.7,0000.0,0002.92,0007.47,0002.00
2023-02-08 05:24:00,,0827.7,4.96,0.00,22.5,21.3,00.0,31.3,24.2,08.7,0000.0,0002.85,0008.20,0001.98
2023-02-08 05:25:00,,0827.7,4.96,0.00,22.5,21.2,00.0,31.3,24.2,08.7,0000.0,0002.83,0008.40,0001.97
2023-02-08 05:26:00,,0827.7,4.95,0.00,22.4,21.1,00.0,31.3,24.1,08.7,0000.0,0002.85,0008.51,0001.97
2023-02-08 05:27:00,,0827.7,5.00,0.00,22.4,21.0,00.0,31.3,24.1,08.8,0000.0,0002.81,0008.01,0001.94
2023-02-08 05:28:00,,0827.7,5.05,0.00,22.4,20.9,00.0,31.3,24.1,08.8,0000.0,0002.81,0007.92,0001.92
2023-02-08 05:29:00,,0827.7,4.97,0.00,22.4,20.9,00.0,31.3,24.0,08.8,0000.0,0002.81,0007.92,0001.90
2023-02-08 05:30:00,,0827.7,4.97,0.00,22.4,20.8,00.0,31.3,24.1,08.8,0000.0,0002.77,0007.95,0001.89
2023-02-08 05:31:00,,0827.7,4.99,0.00,22.3,20.8,00.0,31.3,24.0,08.8,0000.0,0002.73,0007.75,0001.88
2023-02-08 05:32:00,,0827.7,4.98,0.00,22.3,20.7,00.0,31.3,24.0,08.8,0000.0,0002.75,0007.33,0001.87
2023-02-08 05:33:00,,0827.7,5.02,0.00,22.3,20.7,00.0,31.3,23.9,08.7,0000.0,0002.77,0007.44,0001.85
2023-02-08 05:34:00,,0827.7,5.00,0.00,22.3,20.7,00.0,31.2,23.9,08.8,0000.0,0002.89,0008.53,0001.85
2023-02-08 05:35:00,,0827.7,5.02,0.00,22.3,20.7,00.0,31.2,23.9,08.8,0000.0,0002.90,0007.78,0001.84
2023-02-08 05:36:00,,0827.8,5.01,0.00,22.2,20.7,00.0,31.2,23.8,08.8,0000.0,0002.86,0007.43,0001.83
2023-02-08 05:37:00,,0827.7,4.95,0.00,22.2,20.8,00.0,31.2,23.9,08.9,0000.0,0002.81,0007.30,0001.82
2023-02-08 05:38:00,,0827.7,4.96,0.00,22.3,21.6,00.0,31.1,24.2,08.8,0000.0,0002.81,0007.72,0001.81
2023-02-08 05:39:00,,0827.7,4.99,0.00,22.4,22.6,00.0,31.1,24.4,08.8,0000.0,0002.84,0007.81,0001.82
2023-02-08 05:40:00,,0827.7,5.04,0.00,22.5,22.8,00.0,31.2,24.5,08.8,0000.0,0002.81,0007.81,0001.85
2023-02-08 05:41:00,,0827.7,5.06,0.00,22.5,22.4,00.0,31.2,24.4,08.8,0000.0,0002.89,0007.83,0001.87
2023-02-08 05:42:00,,0827.7,4.97,0.00,22.5,22.0,00.0,31.3,24.4,08.8,0000.0,0003.02,0008.10,0001.89
2023-02-08 05:43:00,,0827.7,5.05,0.00,22.5,21.7,00.0,31.3,24.3,08.7,0000.0,0003.10,0008.27,0001.92
2023-02-08 05:44:00,,0827.7,5.11,0.00,22.5,21.5,00.0,31.3,24.3,08.6,0000.0,0003.16,0008.37,0001.94
2023-02-08 05:45:00,,0827.7,5.02,0.00,22.5,21.4,00.0,31.3,24.2,08.6,0000.0,0003.11,0007.63,0001.96
2023-02-08 05:46:00,,0827.7,4.98,0.00,22.5,21.3,00.0,31.3,24.2,08.5,0000.0,0003.05,0008.04,0001.97
2023-02-08 05:47:00,,0827.7,5.00,0.00,22.5,21.2,00.0,31.3,24.1,08.6,0000.0,0003.05,0008.36,0001.98
2023-02-08 05:48:00,,0827.7,5.04,0.00,22.4,21.0,00.0,31.3,24.2,08.5,0000.0,0003.07,0008.51,0002.00
2023-02-08 05:49:00,,0827.7,5.03,0.00,22.4,20.9,00.0,31.3,24.1,08.7,0000.0,0003.15,0008.38,0002.01
2023-02-08 05:50:00,,0827.7,5.02,0.00,22.4,20.9,00.0,31.3,24.1,08.9,0000.0,0003.16,0008.39,0002.01
2023-02-08 05:51:00,,0827.8,4.95,0.00,22.4,20.9,00.0,31.3,24.1,08.5,0000.0,0003.17,0008.83,0001.99
2023-02-08 05:52:00,,0827.8,5.01,0.00,22.4,20.9,00.0,31.3,24.1,08.7,0000.0,0003.14,0009.14,0001.99
2023-02-08 05:53:00,,0827.8,5.02,0.00,22.4,20.8,00.0,31.3,24.1,08.9,0000.0,0003.06,0008.85,0002.00
2023-02-08 05:54:00,,0827.8,4.97,0.00,22.3,20.8,00.0,31.3,24.0,08.9,0000.0,0003.03,0008.70,0002.02
2023-02-08 05:55:00,,0827.8,4.97,0.00,22.3,20.8,00.0,31.3,24.0,08.8,0000.0,0003.00,0008.83,0002.04
2023-02-08 05:56:00,,0827.8,4.98,0.00,22.3,20.8,00.0,31.3,24.0,08.8,0000.0,0003.01,0008.36,0002.05
2023-02-08 05:57:00,,0827.8,4.96,0.00,22.3,20.8,00.0,31.3,24.0,08.9,0000.0,0003.09,0008.39,0002.09
2023-02-08 05:58:00,,0827.9,5.02,0.00,22.3,20.7,00.0,31.2,24.0,09.0,0000.0,0003.16,0009.37,0002.12
2023-02-08 05:59:00,,0827.8,4.98,0.00,22.3,20.7,00.0,31.2,24.0,09.1,0000.0,0003.21,0009.86,0002.15
